[[{"header":{"parameterUnit":"m.s-1","parameterCategory":1,"la1":30.2991,"la2":30.254,"lo1":-89.0895,"lo2":-89.0444,"dy":0.0017,"dx":0.0017,"nx":28,"ny":28,"refTime":"2025-03-18T09:00:00:Z","depth":0,"parameterNumber":2,"parameterNumberName":"U-component_of_WINDS"},"data":[0,0,0,0,0,0,0,0,0,0,0,0,0,0,0,0,0,0,0,0,0,0,0,0,0,0,0,0,0,0,0,0,0,0,0,0,0,0,0,0,0,0,0,0,0,0,0,0,0,0,0,0,0,0,0,0,0,0,0.7357,0.7357,0,0.7379,0.7379,0.7379,0.7362,0.7361,0.736,0.736,0.738,0.7382,0.7383,0,0,0,0,0,0,0,0,0,0,0,0,0,0.7297,0.7298,0.7357,0.7357,0.7357,0.7379,0.7379,0.7379,0.7362,0.7361,0.736,0.7359,0.738,0.7381,0.7383,0,0,0,0,0,0,0,0,0,0,0,0,0,0.7321,0.7298,0.7357,0.7351,0.7351,0.7379,0.7379,0.738,0.7362,0.7361,0.736,0.7359,0.7379,0.7381,0.7383,0.7417,0,0,0.7389,0.739,0,0,0,0,0,0,0,0,0.732,0.7323,0.7352,0.7352,0.7351,0.7367,0.7365,0.7392,0.7363,0.7358,0.736,0.7358,0.7376,0.7379,0.7385,0.7418,0.7419,0.7389,0.739,0.7391,0.7391,0,0,0,0,0,0,0,0.7318,0.7322,0.7365,0.7352,0.7352,0.7347,0.7349,0.737,0.7373,0.7358,0.7357,0.736,0.7376,0.7383,0.7385,0.7419,0.7389,0.739,0.7392,0.7392,0.7479,0.7481,0,0,0,0,0,0,0.7317,0.7321,0.7365,0.7366,0.7333,0.7349,0.7351,0.7363,0.7373,0.7373,0.7361,0.7359,0.7381,0.7383,0.7386,0.7426,0.7391,0.7393,0.7394,0.7478,0.748,0.7481,0,0,0,0,0,0,0.7316,0.7321,0.7364,0.7343,0.7348,0.7351,0.7364,0.7364,0.7371,0.7375,0.7375,0.7368,0.738,0.7383,0.7409,0.7426,0.7393,0.7395,0.7477,0.7479,0.748,0.7505,0,0,0,0,0,0,0.7314,0.7321,0.7334,0.7344,0.7349,0.7387,0.7365,0.7365,0.7374,0.7372,0.7381,0.7382,0.7379,0.7407,0.7411,0.7428,0.7396,0.7475,0.7478,0.748,0.7503,0.7508,0.7512,0,0,0,0,0,0.7312,0.734,0.7335,0.7341,0.7366,0.7388,0.7392,0.7389,0.7376,0.7389,0.7391,0.7382,0.7424,0.7409,0.7414,0.7432,0.7474,0.7477,0.748,0.7501,0.7507,0.7512,0,0,0,0,0,0,0.7332,0.7341,0.7336,0.7368,0.7378,0.7385,0.7402,0.7395,0.7408,0.7405,0.74,0.7403,0.743,0.7433,0.7417,0.7465,0.7447,0.7451,0.7461,0.7467,0.7471,0.747,0.7398,0,0,0,0,0,0.734,0.7358,0.7365,0.7392,0.7398,0.7399,0.7408,0.7405,0.7415,0.7419,0.7423,0.7432,0.7447,0.7457,0.7472,0.7504,0.7505,0.7518,0.7523,0.7526,0.7529,0.7546,0.7552,0.749,0.749,0.749,0,0,0.7357,0.7364,0.7376,0.7397,0.7404,0.7422,0.7403,0.7422,0.7435,0.7422,0.7446,0.745,0.7459,0.7488,0.7501,0.7492,0.7547,0.753,0.7533,0.7534,0.7549,0.7555,0.756,0.7492,0.7491,0.7491,0,0,0.7397,0.7405,0.7428,0.7436,0.7447,0.7448,0.7454,0.7463,0.7465,0.749,0.748,0.7494,0.7521,0.7528,0.7535,0.7577,0.7569,0.7582,0.7605,0.7621,0.7626,0.763,0.7645,0.765,0.7585,0.7585,0.7586,0,0.7416,0.7443,0.7441,0.7461,0.747,0.746,0.7483,0.749,0.7505,0.7511,0.7501,0.7534,0.754,0.757,0.7581,0.7587,0.7592,0.7581,0.7626,0.763,0.7634,0.7648,0.7653,0.7587,0.7587,0.7587,0.7587,0,0.7466,0.7485,0.7503,0.7518,0.7529,0.7551,0.7551,0.7562,0.7558,0.756,0.7585,0.7592,0.7607,0.7614,0.761,0.7643,0.7637,0.7627,0.7608,0.7642,0.7654,0.766,0.7589,0.7589,0.7588,0.7588,0,0,0.7518,0.7533,0.7539,0.7546,0.7558,0.7572,0.7593,0.7609,0.7618,0.7629,0.7646,0.7668,0.7659,0.7667,0.7663,0.7678,0.771,0.7665,0.7665,0.7673,0.7747,0.7754,0.776,0.7704,0.7705,0.7706,0.7745,0,0.7558,0.7596,0.7594,0.7629,0.7646,0.7636,0.7654,0.7663,0.7665,0.7679,0.768,0.7696,0.7683,0.7687,0.7701,0.7703,0.7725,0.77,0.7719,0.772,0.7717,0.7767,0.7775,0.7812,0.7751,0.7751,0.7752,0,0.761,0.7623,0.766,0.7669,0.7676,0.7692,0.7706,0.772,0.7729,0.773,0.7739,0.7733,0.7754,0.7735,0.7763,0.7746,0.7754,0.7756,0.7757,0.7758,0.7738,0.7769,0.7823,0.7829,0.776,0.7759,0.7759,0,0.7643,0.767,0.7696,0.7702,0.7713,0.7725,0.773,0.7739,0.7748,0.776,0.7766,0.778,0.7787,0.7798,0.7795,0.7782,0.7823,0.7805,0.7823,0.7823,0.7832,0.7831,0.7888,0.7838,0.7838,0.7838,0.7837,0,0.7687,0.771,0.7711,0.7726,0.7751,0.7749,0.7773,0.7777,0.7784,0.78,0.7792,0.7806,0.7803,0.7817,0.7815,0.7838,0.7841,0.7842,0.7841,0.7842,0.7842,0.7846,0.7843,0.7839,0.7839,0.7838,0.7838,0,0.7729,0.7731,0.7757,0.7766,0.7769,0.7787,0.7794,0.7808,0.781,0.7829,0.7834,0.7836,0.7852,0.7851,0.7869,0.7868,0.7895,0.7892,0.7892,0.7891,0.791,0.7908,0.7971,0.7978,0.7924,0.7925,0.7925,0,0.7757,0.7774,0.7785,0.7795,0.7801,0.7818,0.7827,0.7826,0.7836,0.7848,0.786,0.7876,0.7888,0.7914,0.7917,0.7931,0.7927,0.7948,0.7929,0.7929,0.7926,0.7925,0.7926,0.7951,0.7952,0.7953,0.7953,0,0.7806,0.7806,0.782,0.7836,0.7848,0.7859,0.787,0.7878,0.7877,0.7889,0.7906,0.7916,0.7935,0.795,0.7963,0.7967,0.796,0.7959,0.7964,0.7965,0.7964,0.7964,0.7902,0.7958,0.7957,0.7957,0.7957,0.7956,0.784,0.7855,0.7865,0.7882,0.789,0.79,0.7914,0.7917,0.7932,0.7947,0.7945,0.7964,0.7972,0.7989,0.7995,0.8009,0.8001,0.8009,0.801,0.8012,0.8014,0.7963,0.8011,0.8011,0.8011,0.8011,0.8011,0,0.7888,0.7894,0.791,0.7925,0.7938,0.7931,0.7943,0.7954,0.7971,0.798,0.7992,0.8011,0.8026,0.803,0.8044,0.8054,0.8051,0.8058,0.8057,0.8058,0.802,0.8014,0.806,0.806,0.806,0.806,0.806,0.806,0.7914,0.7939,0.794,0.7968,0.7974,0.7993,0.8,0.8009,0.8016,0.8038,0.8051,0.8054,0.8061,0.8075,0.8088,0.8089,0.8094,0.8102,0.8101,0.8066,0.8061,0.8056,0.805,0.8103,0.8103,0.8138,0.8138,0.8138]},{"header":{"parameterUnit":"m.s-1","parameterCategory":1,"la1":30.2991,"la2":30.254,"lo1":-89.0895,"lo2":-89.0444,"dy":0.0017,"dx":0.0017,"nx":28,"ny":28,"refTime":"2025-03-18T09:00:00:Z","depth":0,"parameterNumber":3,"parameterNumberName":"V-component_of_WINDS"},"data":[0,0,0,0,0,0,0,0,0,0,0,0,0,0,0,0,0,0,0,0,0,0,0,0,0,0,0,0,0,0,0,0,0,0,0,0,0,0,0,0,0,0,0,0,0,0,0,0,0,0,0,0,0,0,0,0,0,0,6.3511,6.3513,0,6.3655,6.3657,6.3658,6.3612,6.3609,6.3606,6.3603,6.3745,6.3751,6.3758,0,0,0,0,0,0,0,0,0,0,0,0,0,6.319,6.3197,6.3511,6.3513,6.3515,6.3655,6.3657,6.3659,6.3613,6.3609,6.3605,6.3602,6.3743,6.3751,6.3759,0,0,0,0,0,0,0,0,0,0,0,0,0,6.3332,6.3199,6.3511,6.3509,6.351,6.3655,6.3657,6.3659,6.3614,6.3609,6.3604,6.36,6.374,6.375,6.376,6.3913,0,0,6.379,6.3794,0,0,0,0,0,0,0,0,6.3324,6.3343,6.3507,6.3509,6.3511,6.3611,6.3596,6.3744,6.3615,6.3574,6.3603,6.3598,6.3704,6.3716,6.3753,6.392,6.3926,6.3791,6.3797,6.3801,6.3804,0,0,0,0,0,0,0,6.3314,6.3337,6.3568,6.351,6.3512,6.3499,6.3514,6.3624,6.3663,6.3577,6.3574,6.3592,6.3704,6.3744,6.3756,6.3928,6.3791,6.38,6.3806,6.381,6.4227,6.4232,0,0,0,0,0,0,6.3304,6.3329,6.3563,6.3572,6.3404,6.3508,6.3525,6.3583,6.3662,6.3669,6.3596,6.359,6.3729,6.3745,6.3761,6.3947,6.3801,6.3811,6.3816,6.4222,6.4229,6.4234,0,0,0,0,0,0,6.3297,6.3325,6.3557,6.345,6.3479,6.3519,6.3585,6.3589,6.3629,6.3676,6.3682,6.363,6.3726,6.3747,6.3876,6.3951,6.3815,6.3824,6.4216,6.4224,6.4231,6.4318,0,0,0,0,0,0,6.3288,6.3323,6.3383,6.3452,6.3485,6.3672,6.3589,6.3595,6.3647,6.364,6.371,6.3717,6.3724,6.3862,6.3886,6.3962,6.3832,6.421,6.422,6.4229,6.4309,6.4328,6.4344,0,0,0,0,0,6.3277,6.34,6.3386,6.3415,6.3561,6.3676,6.3695,6.3703,6.3653,6.3713,6.3743,6.3714,6.3939,6.3875,6.3902,6.3983,6.4205,6.4217,6.4228,6.4301,6.4324,6.4344,0,0,0,0,0,0,6.3337,6.3409,6.3394,6.3544,6.3605,6.3668,6.3744,6.3727,6.3802,6.3792,6.3796,6.3812,6.3945,6.3976,6.3904,6.4135,6.4064,6.4082,6.411,6.4133,6.415,6.414,6.384,0,0,0,0,0,6.3368,6.3458,6.3515,6.3642,6.3673,6.3704,6.3754,6.3756,6.3818,6.3842,6.3882,6.3942,6.4025,6.4081,6.416,6.4313,6.4327,6.4381,6.4399,6.4413,6.4429,6.4512,6.4537,6.4272,6.4272,6.4272,0,0,6.3433,6.3483,6.3539,6.3655,6.3702,6.3794,6.3726,6.3825,6.3893,6.3857,6.3982,6.4013,6.408,6.4222,6.4286,6.4252,6.4505,6.4428,6.4439,6.4447,6.4526,6.4551,6.4574,6.428,6.4279,6.4277,0,0,6.3597,6.3645,6.3756,6.3805,6.3878,6.3897,6.3924,6.3991,6.4011,6.4137,6.4112,6.4191,6.4336,6.4385,6.4429,6.4613,6.4589,6.4638,6.4731,6.4812,6.4833,6.4851,6.4918,6.4941,6.4653,6.4653,6.4653,0,6.3668,6.3807,6.3814,6.3917,6.3969,6.3943,6.4055,6.4101,6.4195,6.4231,6.4191,6.4373,6.4416,6.4569,6.4614,6.465,6.468,6.4631,6.483,6.4848,6.4866,6.4929,6.4954,6.4659,6.4658,6.4658,6.4657,0,6.389,6.3987,6.4067,6.4162,6.4222,6.4329,6.4352,6.4411,6.4407,6.443,6.4559,6.461,6.47,6.4736,6.4731,6.4889,6.4865,6.4828,6.4757,6.4896,6.4956,6.498,6.4667,6.4665,6.4663,6.4662,0,0,6.4097,6.4196,6.4225,6.4268,6.4347,6.4421,6.4525,6.4616,6.4667,6.4733,6.482,6.4944,6.491,6.496,6.496,6.5032,6.5175,6.4986,6.4987,6.502,6.5352,6.538,6.5408,6.516,6.5164,6.5168,6.5346,0,6.4269,6.4456,6.4466,6.4635,6.4725,6.4701,6.4792,6.485,6.4874,6.4952,6.4977,6.5065,6.5014,6.5044,6.5113,6.5143,6.5242,6.513,6.524,6.5244,6.5226,6.5439,6.547,6.5636,6.537,6.5374,6.5376,0,6.4495,6.457,6.4749,6.4816,6.4854,6.4936,6.502,6.5095,6.5159,6.5171,6.5228,6.5219,6.5325,6.525,6.5395,6.5319,6.5364,6.5386,6.5392,6.5404,6.5319,6.5457,6.5689,6.5714,6.5413,6.541,6.5407,0,6.4629,6.4775,6.4901,6.4938,6.5019,6.5078,6.5114,6.5173,6.5227,6.5299,6.5334,6.5417,6.5462,6.5526,6.5539,6.5483,6.5685,6.5611,6.5698,6.5698,6.5742,6.5739,6.5986,6.577,6.577,6.5769,6.5769,0,6.482,6.4931,6.4963,6.504,6.5163,6.5173,6.5293,6.5325,6.5378,6.5461,6.5444,6.5521,6.5533,6.5613,6.5623,6.5743,6.5763,6.5775,6.5777,6.5778,6.5776,6.5808,6.5797,6.5776,6.5775,6.5773,6.5772,0,6.4991,6.5017,6.5153,6.5219,6.5239,6.5326,6.5382,6.5456,6.5478,6.5582,6.5607,6.5642,6.5735,6.5755,6.5864,6.5871,6.6013,6.6002,6.5992,6.5992,6.6078,6.607,6.6354,6.6392,6.6151,6.6153,6.6155,0,6.5112,6.5197,6.5273,6.5328,6.5368,6.5456,6.5512,6.5524,6.5582,6.5662,6.5726,6.5818,6.5892,6.6041,6.6075,6.6158,6.615,6.6244,6.6162,6.6161,6.6153,6.6148,6.6157,6.626,6.6262,6.6264,6.6266,0,6.5325,6.5334,6.5415,6.5502,6.557,6.5638,6.5703,6.5748,6.5769,6.5835,6.5931,6.5988,6.6101,6.6192,6.6276,6.631,6.6292,6.6291,6.6316,6.6318,6.6309,6.6316,6.6036,6.6285,6.6283,6.6282,6.6281,6.628,6.5475,6.555,6.5616,6.5707,6.5758,6.5819,6.5892,6.5925,6.6006,6.61,6.6102,6.6207,6.6268,6.6379,6.6419,6.65,6.6471,6.6506,6.6515,6.6524,6.6533,6.6296,6.6515,6.6515,6.6514,6.6514,6.6513,0,6.5687,6.5729,6.5813,6.5906,6.5978,6.5956,6.6026,6.6088,6.6181,6.6241,6.6315,6.6425,6.6513,6.6555,6.6642,6.6699,6.6692,6.6721,6.6717,6.6726,6.6554,6.6524,6.6725,6.6725,6.6725,6.6725,6.6725,6.6725,6.5807,6.5932,6.5949,6.6099,6.6139,6.6244,6.6286,6.6342,6.639,6.6515,6.6589,6.6616,6.6669,6.6759,6.6839,6.6848,6.6881,6.6915,6.692,6.6759,6.6738,6.6717,6.669,6.6921,6.6922,6.7085,6.7087,6.7088]}]]